Content
SEND FEEDBACK

Daily
Averages
Monthly
Summary
United States of America

POTTS JUNCTION, GUAM


Home > North America > United States > Guam
Elevation: 110 meters     Latitude: 13 33N     Longitude: 144 50E

WEATHER
 
SELECT A DAY
Number of Records: 209,044;   Date Range: 1/1/95 - 7/29/14
 
SHARE

PRINT THIS DATA

[ ← Previous Day ]
WEATHER ALMANAC - 10 FEBRUARY, 2013
[ Next Day → ]
[ °F ]   °C
Weather ElementAverageHighLow
Temperature26.8 °C30 °C (2:54 pm)23.9 °C (11:54 pm)
Dewpoint22.7 °C23.9 °C (1:54 am)20 °C (3:54 pm)
Humidity79.1 %96 % (11:54 pm)55 % (3:54 pm)
Barometer1012.2 hPa1014.6 hPa (9:01 am)1010.5 hPa (2:54 pm)
Wind Speed18.7 km/h25.9 km/h (9:54 am)
Wind Gust33.3 km/h (8:54 am)
Weather ElementAverage
Visibility15.9 km
Wind DirectionENE (77.2 °)

Weather ElementTotal
Precipitation1.52 mm
Cooling Degree Days8.6 (Base 18.3)
Growing Degree Days16.9 (Base 10)
Averaged from 25 records on 10 February, 2013
WEATHER CONDITIONS BREAKOUT
WIND DIRECTION BREAKOUT
WEATHER BY HOUR - 10 FEBRUARY, 2013
[ °F ]   °C
Local TimeTemperatureDewpointHumidityBarometerVisibilityWind DirectionWind SpeedGust SpeedPrecipitationEventsConditions
1:54 AM25 °C23.9 °C94 %1011.9 hPa16.1 kmNE (50°)13 km/h0 mmRainLight Rain
2:54 AM25.6 °C23.9 °C90 %1011.5 hPa16.1 kmENE (70°)14.8 km/hScattered Clouds
3:54 AM25 °C23.3 °C90 %1011.2 hPa16.1 kmENE (60°)11.1 km/hScattered Clouds
4:54 AM25 °C23.3 °C90 %1011.2 hPa16.1 kmENE (70°)11.1 km/h0 mmPartly Cloudy
5:54 AM25 °C23.3 °C90 %1011.9 hPa16.1 kmENE (70°)9.3 km/hPartly Cloudy
6:54 AM25 °C23.3 °C90 %1012.5 hPa16.1 kmEast (80°)9.3 km/hClear
7:54 AM26.1 °C23.3 °C84 %1013.2 hPa16.1 kmEast (80°)18.5 km/h25.9 km/hPartly Cloudy
8:14 AM27 °C23 °C79 %1013.9 hPa16.1 kmENE (70°)18.5 km/hPartly Cloudy
8:54 AM27.2 °C22.8 °C77 %1013.9 hPa16.1 kmEast (90°)24.1 km/h33.3 km/hScattered Clouds
9:01 AM27 °C23 °C79 %1014.6 hPa16.1 kmEast (90°)24.1 km/hPartly Cloudy
9:54 AM27.8 °C22.2 °C71 %1013.9 hPa16.1 kmEast (90°)25.9 km/hScattered Clouds
10:54 AM28.3 °C22.2 °C69 %1013.5 hPa16.1 kmEast (90°)24.1 km/hPartly Cloudy
11:54 AM28.9 °C21.7 °C65 %1012.5 hPa16.1 kmENE (70°)22.2 km/hScattered Clouds
12:54 PM29.4 °C21.1 °C61 %1011.9 hPa16.1 kmEast (100°)22.2 km/hPartly Cloudy
1:54 PM28.9 °C22.2 °C67 %1011.2 hPa16.1 kmEast (90°)22.2 km/hScattered Clouds
2:54 PM30 °C21.7 °C61 %1010.5 hPa16.1 kmENE (70°)25.9 km/hScattered Clouds
3:54 PM30 °C20 °C55 %1010.5 hPa16.1 kmEast (90°)22.2 km/hScattered Clouds
4:54 PM28.3 °C22.8 °C72 %1010.8 hPa16.1 kmEast (80°)20.4 km/hScattered Clouds
5:54 PM27.2 °C22.2 °C74 %1011.2 hPa16.1 kmEast (80°)20.4 km/hClear
6:54 PM26.7 °C22.8 °C79 %1011.5 hPa16.1 kmEast (80°)18.5 km/h31.5 km/hPartly Cloudy
7:54 PM26.1 °C23.9 °C88 %1012.2 hPa12.9 kmEast (80°)13 km/h0 mmScattered Clouds
8:54 PM25.6 °C22.8 °C84 %1012.2 hPa16.1 kmEast (80°)18.5 km/hPartly Cloudy
9:54 PM26.1 °C22.8 °C82 %1012.5 hPa16.1 kmEast (80°)20.4 km/hPartly Cloudy
10:54 PM25 °C23.3 °C90 %1012.9 hPa16.1 kmNE (50°)24.1 km/h0 mmRainLight Rain
11:54 PM23.9 °C23.3 °C96 %1012.9 hPa16.1 kmENE (70°)11.1 km/h1.52 mmMostly Cloudy
Hourly data recorded from PGUM, located 0 kilometers away from Potts Junction, Guam







STORIES FROM OUR PARTNERS